Volver al catálogo

THOR ABLESTAR DEB

ActivoLEO
NORAD 649·DEBRIS·🇺🇸 United States

Lanzado Jun 29, 1961 desde Cape Canaveral Space Force Station

Loading…

Próximos Pases (próximas 24 horas)

TLE

ActualizadoSource: Space-Track

Época: Sep 13, 2026, 09:00 UTC

1   649U 61015HA  26256.37552338 -.00000018  00000-0  11523-3 0  9994
2   649  66.2691 353.2050 0557835   0.7714  56.9932 12.65331808  3791

Sigue THOR ABLESTAR DEB en tiempo real con AllMySat

Download on the App Store